Flag for Vietnam Weather past 2 weeks in Hanoi, Vietnam

Now
77 °F

Rain. Broken clouds.


Feels Like: 78 °F
Forecast: 74 / 80 °F
Wind: 10 mph from East

Location: Ha Noi Airport

Current Time: Aug 2, 2015 at 1:51:48 PM

Latest Report: Aug 2, 2015 at 1:00 PM


Visibility: 4 mi

Pressure: 29.80 "Hg

Humidity: 94%

Dew point: 75 °F

Location of HanoiLocation

Historic Weather in Hanoi — Graph

°F

Hanoi temperature yesterday

Maximum temperature yesterday: 79 °F (at 12:00 AM)
Minimum temperature yesterday: 73 °F (at 12:00 PM)
Average temperature yesterday: 77 °F

Past Weeks' High & Low Weather Summary

 TemperatureHumidityPressure
High97 °F (Jul 22, 4:30 PM)100% (Jul 19, 8:00 PM)29.80 "Hg (Jul 19, 8:00 PM)
Low73 °F (Aug 1, 12:00 PM)49% (Jul 19, 5:00 PM)29.53 "Hg (Jul 18, 3:30 PM)
Average83 °F82%29.66 "Hg
* Reported Jul 18 12:00 Noon — Aug 2 12:30 PM, Hanoi, Weather by CustomWeather, © 2015

Note: Actual official high and low records may vary slightly from our data, if they occured in-between our weather recording intervals... More about our weather records

Advertising

Hanoi weather history for previous 24 hours

 ConditionsComfort  
Time TempWeatherWind HumidityBarometerVisibility
12:30 PM
Sun, Aug 2
77 °FLight rain. Broken clouds.10 mph94%29.80 "Hg4 mi
12:00 PM77 °FLight rain. Broken clouds.13 mph94%29.80 "Hg4 mi
11:30 AM77 °FRain. Broken clouds.10 mph94%29.80 "Hg4 mi
11:00 AM77 °FLight rain. Broken clouds.12 mph94%29.80 "Hg4 mi
10:30 AM77 °FLight rain. Broken clouds.10 mph94%29.80 "Hg5 mi
10:00 AM77 °FRain. Broken clouds.8 mph94%29.80 "Hg3 mi
9:30 AM77 °FLight rain. Broken clouds.6 mph94%29.80 "Hg4 mi
9:00 AM75 °FLight rain. Partly sunny.6 mph94%29.77 "HgN/A
8:30 AM77 °FLight rain. Broken clouds.7 mph94%29.77 "Hg6 mi
8:00 AM77 °FLight rain. Broken clouds.5 mph94%29.77 "Hg4 mi
7:30 AM77 °FLight rain. Broken clouds.6 mph94%29.74 "HgN/A
7:00 AM75 °FRain. Broken clouds.8 mph100%29.74 "Hg4 mi
6:30 AM75 °FHeavy rain. Broken clouds.7 mph100%29.74 "Hg1 mi
6:00 AM77 °FBroken clouds.6 mph94%29.74 "Hg4 mi
5:00 AM75 °FLight rain. Partly cloudy.5 mph100%29.74 "Hg6 mi
4:30 AM75 °FLight rain. Partly cloudy.5 mph100%29.74 "Hg4 mi
4:00 AM75 °FLight rain. Partly cloudy.6 mph94%29.74 "Hg5 mi
3:30 AM75 °FRain. Partly cloudy.7 mph94%29.74 "Hg3 mi
3:00 AM75 °FPartly cloudy.8 mph94%29.74 "HgN/A
2:30 AM75 °FLight rain. Partly cloudy.9 mph94%29.74 "HgN/A
2:00 AM75 °FRain. Partly cloudy.8 mph94%29.74 "Hg5 mi
1:30 AM75 °FRain. Partly cloudy.10 mph94%29.74 "Hg3 mi
1:00 AM75 °FRain. Partly cloudy.8 mph94%29.74 "Hg3 mi
12:30 AM75 °FRain. Partly cloudy.8 mph100%29.77 "Hg4 mi
12:00 AM75 °FRain. Partly cloudy.8 mph100%29.77 "Hg3 mi
11:30 PM
Sat, Aug 1
75 °FRain. Partly cloudy.9 mph100%29.77 "Hg2 mi
11:00 PM75 °FHeavy rain. Partly cloudy.9 mph100%29.77 "Hg2 mi
10:30 PM77 °FRain. Partly cloudy.7 mph94%29.77 "Hg3 mi
10:00 PM77 °FRain. Passing clouds.8 mph94%29.77 "Hg3 mi
9:30 PM77 °FLight rain. Partly cloudy.9 mph94%29.77 "HgN/A
9:00 PM75 °FLight rain. Partly cloudy.9 mph94%29.74 "HgN/A
8:30 PM77 °FLight rain. Partly cloudy.12 mph89%29.74 "HgN/A
8:00 PM77 °FRain. Partly cloudy.12 mph89%29.74 "Hg5 mi
7:30 PM77 °FRain. Partly cloudy.8 mph94%29.74 "Hg5 mi
7:00 PM75 °FRain. Partly cloudy.6 mph100%29.71 "Hg4 mi
6:30 PM75 °FLight rain. Broken clouds.7 mph94%29.71 "Hg6 mi
6:00 PM75 °FLight rain. Broken clouds.9 mph94%29.71 "HgN/A
5:30 PM77 °FLight rain. Broken clouds.15 mph89%29.71 "HgN/A
5:00 PM77 °FLight rain. Broken clouds.14 mph94%29.68 "HgN/A
4:30 PM77 °FLight rain. Broken clouds.13 mph94%29.68 "HgN/A
4:00 PM77 °FLight rain. Broken clouds.7 mph94%29.68 "HgN/A
3:30 PM75 °FLight rain. Broken clouds.6 mph94%29.71 "HgN/A
3:00 PM75 °FRain. Broken clouds.5 mph94%29.71 "Hg4 mi
2:30 PM75 °FRain. Broken clouds.6 mph94%29.71 "Hg4 mi
2:00 PM75 °FRain. Broken clouds.6 mph94%29.74 "Hg5 mi
1:30 PM73 °FThundershowers. Broken clouds.6 mph100%29.74 "HgN/A
1:00 PM73 °FThunderstorms. Broken clouds.7 mph100%29.74 "Hg2 mi
Weather by CustomWeather, © 2015

See weather overviewHow to use our weather pages